Flag for Cyprus Weather past 2 weeks in Famagusta, Northern Cyprus, Cyprus

Now
88 °F

Sunny.


Feels Like: 88 °F
Forecast: 80 / 94 °F
Wind: 15 mph from Southwest

Location: Larnaca Airport

Current Time: Aug 31, 2015 at 6:47:31 PM

Latest Report: Aug 31, 2015 at 6:00 PM


Visibility: 10 mi

Pressure: 29.80 "Hg

Humidity: 40%

Dew point: 61 °F

Location of FamagustaLocation

Historic Weather in Famagusta — Graph

°F

Famagusta temperature yesterday

Maximum temperature yesterday: 93 °F (at 12:30 PM)
Minimum temperature yesterday: 75 °F (at 12:00 AM)
Average temperature yesterday: 85 °F

Past Weeks' High & Low Weather Summary

 TemperatureHumidityPressure
High95 °F (Aug 16, 6:00 PM)94% (Aug 21, 6:00 AM)29.86 "Hg (Aug 21, 6:00 AM)
Low72 °F (Aug 21, 6:00 AM)16% (Aug 26, 12:00 PM)29.62 "Hg (Aug 23, 6:00 PM)
Average85 °F57%29.77 "Hg
* Reported Aug 16 6:00 PM — Aug 31 6:00 PM, Famagusta, Weather by CustomWeather, © 2015

Note: Actual official high and low records may vary slightly from our data, if they occured in-between our weather recording intervals... More about our weather records

Advertising

Famagusta weather history for previous 24 hours

 ConditionsComfort  
Time TempWeatherWind HumidityBarometerVisibility
6:00 PM
Mon, Aug 31
88 °FSunny.15 mph40%29.80 "Hg10 mi
5:30 PM90 °FSunny.15 mph46%29.80 "Hg10 mi
5:00 PM90 °FSunny.15 mph41%29.80 "Hg10 mi
4:30 PM91 °FSunny.9 mph38%29.80 "Hg10 mi
4:00 PM91 °FPassing clouds.14 mph38%29.83 "HgN/A
3:30 PM91 °FPassing clouds.12 mph38%29.83 "HgN/A
3:00 PM91 °FPassing clouds.13 mph38%29.83 "HgN/A
2:30 PM91 °FPassing clouds.13 mph41%29.83 "HgN/A
2:00 PM91 °FPassing clouds.14 mph44%29.83 "HgN/A
1:30 PM90 °FPassing clouds.13 mph46%29.83 "HgN/A
1:00 PM90 °FPassing clouds.14 mph43%29.83 "HgN/A
12:30 PM90 °FPassing clouds.12 mph43%29.83 "HgN/A
12:00 PM90 °FSunny.13 mph46%29.83 "Hg10 mi
11:30 AM90 °FSunny.10 mph46%29.83 "Hg10 mi
11:00 AM90 °FPassing clouds.9 mph43%29.83 "HgN/A
10:30 AM88 °FPassing clouds.8 mph46%29.86 "HgN/A
10:00 AM88 °FPassing clouds.6 mph43%29.83 "HgN/A
9:30 AM90 °FPassing clouds.6 mph36%29.83 "HgN/A
9:00 AM90 °FSunny.No wind36%29.83 "Hg10 mi
8:30 AM86 °FPassing clouds.5 mph40%29.83 "HgN/A
8:00 AM84 °FSunny.2 mph40%29.83 "Hg10 mi
7:30 AM81 °FSunny.2 mph37%29.80 "Hg10 mi
7:00 AM77 °FClear.5 mph39%29.80 "Hg10 mi
6:30 AM73 °FClear.5 mph44%29.80 "Hg10 mi
6:00 AM75 °FClear.3 mph41%29.80 "Hg10 mi
5:30 AM75 °FClear.5 mph44%29.80 "Hg10 mi
5:00 AM75 °FPassing clouds.5 mph41%29.80 "HgN/A
4:30 AM77 °FClear.5 mph39%29.77 "Hg10 mi
4:00 AM75 °FClear.3 mph39%29.77 "Hg10 mi
3:30 AM75 °FClear.5 mph39%29.80 "Hg10 mi
3:00 AM77 °FClear.6 mph36%29.80 "Hg10 mi
2:30 AM75 °FClear.5 mph47%29.80 "Hg10 mi
2:00 AM73 °FClear.2 mph50%29.80 "Hg10 mi
1:30 AM75 °FPassing clouds.3 mph50%29.83 "HgN/A
1:00 AM77 °FClear.6 mph47%29.83 "Hg10 mi
12:30 AM77 °FClear.1 mph44%29.83 "Hg10 mi
12:00 AM77 °FClear.No wind44%29.83 "Hg10 mi
11:30 PM
Sun, Aug 30
79 °FClear.2 mph42%29.83 "Hg10 mi
10:30 PM82 °FPassing clouds.7 mph37%29.83 "HgN/A
10:00 PM84 °FClear.8 mph35%29.83 "Hg10 mi
9:30 PM81 °FPassing clouds.7 mph62%29.83 "HgN/A
9:00 PM82 °FPassing clouds.1 mph62%29.83 "HgN/A
8:30 PM82 °FPassing clouds.5 mph62%29.83 "HgN/A
8:00 PM82 °FPassing clouds.12 mph66%29.83 "HgN/A
7:30 PM84 °FPassing clouds.12 mph66%29.80 "HgN/A
7:00 PM84 °FPassing clouds.13 mph66%29.80 "HgN/A
6:30 PM86 °FPassing clouds.15 mph55%29.80 "HgN/A
6:00 PM88 °FPassing clouds.12 mph52%29.80 "HgN/A
Weather by CustomWeather, © 2015

See weather overviewHow to use our weather pages